Location: Feudal
(51.8839°N, 107.6105°W)
Time: 04:26:55
(UTC+00:00)

Envisat - Pass Details

Date: 25 January 2022
Orbit: 764 x 765 km, 98.2° (Epoch: 25 May)

Event Time Altitude Azimuth Distance (km) Brightness Sun altitude
Rises 13:12:38 0° 9° (N) 3,245 6.2 -16.3°
Reaches altitude 10° 13:15:05 10° 1° (N) 2,314 5.4 -15.9°
Maximum altitude 13:19:43 36° 296° (WNW) 1,195 3.5 -15.2°
Drops below altitude 10° 13:24:19 10° 231° (SW) 2,301 5.1 -14.5°
Sets 13:26:45 0° 223° (SW) 3,223 5.9 -14.2°
